Location: Tel Aviv
(32.0670°N, 34.7670°E)
Time: 01:03:25
(UTC+02:00)

Transit 4A - Pass Details

Date: 08 December 2023
Orbit: 869 x 974 km, 66.8° (Epoch: 23 February)

Event Time Altitude Azimuth Distance (km) Brightness Sun altitude
Exits shadow 05:30:07 15° 303° (WNW) 2,217 9.3 -12.3°
Maximum altitude 05:33:56 29° 253° (WSW) 1,572 8.7 -11.5°
Drops below altitude 10° 05:38:53 10° 195° (SSW) 2,525 10.2 -10.6°
Sets 05:41:38 0° 184° (S) 3,450 11.1 -10.0°
